Time,TemperatureF,DewpointF,PressureIn,WindDirection,WindDirectionDegrees,WindSpeedMPH,WindSpeedGustMPH,Humidity,HourlyPrecipIn,Conditions,Clouds,dailyrainin,SoftwareType,DateUTC
2013-01-27 00:01:00,26.0,18.0,30.09,NE,49,1.0,2.0,71,0.00,,,0.00,,2013-01-27 06:01:00,
2013-01-27 00:11:00,26.0,18.0,30.09,NE,49,1.0,2.0,71,0.00,,,0.00,,2013-01-27 06:11:00,
2013-01-27 00:21:00,26.0,18.0,30.09,NE,45,1.0,2.0,71,0.00,,,0.00,,2013-01-27 06:21:00,
2013-01-27 00:32:00,26.0,18.0,30.09,NE,45,1.0,2.0,71,0.00,,,0.00,,2013-01-27 06:32:00,
2013-01-27 00:42:00,26.0,18.0,30.09,NE,45,1.0,2.0,71,0.00,,,0.00,,2013-01-27 06:42:00,
2013-01-27 00:51:00,25.0,17.0,30.09,NE,45,0.0,2.0,72,0.00,,,0.00,,2013-01-27 06:51:00,
2013-01-27 01:01:00,25.0,18.0,30.09,ENE,77,1.0,2.0,73,0.00,,,0.00,,2013-01-27 07:01:00,
2013-01-27 01:14:00,25.0,18.0,30.09,ENE,77,1.0,2.0,73,0.00,,,0.00,,2013-01-27 07:14:00,
2013-01-27 01:21:00,25.0,17.0,30.08,ENE,63,1.0,2.0,72,0.00,,,0.00,,2013-01-27 07:21:00,
2013-01-27 01:31:00,25.0,17.0,30.09,ENE,76,0.0,2.0,72,0.00,,,0.00,,2013-01-27 07:31:00,
2013-01-27 01:41:00,25.0,17.0,30.09,ENE,76,0.0,2.0,72,0.00,,,0.00,,2013-01-27 07:41:00,
2013-01-27 01:52:00,25.0,17.0,30.09,East,89,0.0,2.0,72,0.00,,,0.00,,2013-01-27 07:52:00,
2013-01-27 02:01:00,25.0,17.0,30.09,East,88,2.0,4.0,71,0.00,,,0.00,,2013-01-27 08:01:00,
2013-01-27 02:11:00,25.0,17.0,30.09,East,88,2.0,4.0,71,0.00,,,0.00,,2013-01-27 08:11:00,
2013-01-27 02:22:00,25.0,17.0,30.09,East,88,2.0,4.0,71,0.00,,,0.00,,2013-01-27 08:22:00,
2013-01-27 02:32:00,25.0,17.0,30.08,East,90,3.0,7.0,72,0.00,,,0.00,,2013-01-27 08:32:00,
2013-01-27 02:42:00,25.0,17.0,30.08,East,90,3.0,7.0,72,0.00,,,0.00,,2013-01-27 08:42:00,
2013-01-27 02:52:00,25.0,17.0,30.08,East,90,3.0,7.0,72,0.00,,,0.00,,2013-01-27 08:52:00,
2013-01-27 03:02:00,25.0,18.0,30.07,ENE,72,4.0,8.0,73,0.00,,,0.00,,2013-01-27 09:02:00,
2013-01-27 03:11:00,25.0,18.0,30.07,ENE,72,4.0,8.0,73,0.00,,,0.00,,2013-01-27 09:11:00,
2013-01-27 03:21:00,25.0,18.0,30.07,East,83,2.0,7.0,73,0.00,,,0.00,,2013-01-27 09:21:00,
2013-01-27 03:32:00,25.0,18.0,30.09,East,90,2.0,4.0,73,0.00,,,0.00,,2013-01-27 09:32:00,
2013-01-27 03:41:00,25.0,18.0,30.09,East,90,2.0,4.0,73,0.00,,,0.00,,2013-01-27 09:41:00,
2013-01-27 03:51:00,25.0,18.0,30.07,ENE,66,26.0,26.0,74,0.00,,,0.00,,2013-01-27 09:51:00,
2013-01-27 04:01:00,25.0,18.0,30.07,NE,50,0.0,2.0,74,0.00,,,0.00,,2013-01-27 10:01:00,
2013-01-27 04:11:00,25.0,18.0,30.07,NE,50,0.0,2.0,74,0.00,,,0.00,,2013-01-27 10:11:00,
2013-01-27 04:21:00,25.0,18.0,30.06,NE,50,0.0,2.0,74,0.00,,,0.00,,2013-01-27 10:21:00,
2013-01-27 04:31:00,26.0,19.0,30.05,East,85,2.0,4.0,74,0.00,,,0.00,,2013-01-27 10:31:00,
2013-01-27 04:42:00,26.0,19.0,30.05,East,85,2.0,4.0,74,0.00,,,0.00,,2013-01-27 10:42:00,
2013-01-27 04:51:00,26.0,19.0,30.04,East,90,2.0,5.0,74,0.00,,,0.00,,2013-01-27 10:51:00,
2013-01-27 05:01:00,26.0,19.0,30.03,East,93,2.0,4.0,74,0.00,,,0.00,,2013-01-27 11:01:00,
2013-01-27 05:11:00,26.0,19.0,30.03,East,93,2.0,4.0,74,0.00,,,0.00,,2013-01-27 11:11:00,
2013-01-27 05:21:00,27.0,20.0,30.04,ESE,103,1.0,3.0,74,0.00,,,0.00,,2013-01-27 11:21:00,
2013-01-27 05:32:00,27.0,20.0,30.04,ESE,106,1.0,2.0,74,0.00,,,0.00,,2013-01-27 11:32:00,
2013-01-27 05:42:00,27.0,20.0,30.04,ESE,106,1.0,2.0,74,0.00,,,0.00,,2013-01-27 11:42:00,
2013-01-27 05:52:00,27.0,20.0,30.04,South,190,1.0,4.0,74,0.00,,,0.00,,2013-01-27 11:52:00,
2013-01-27 06:02:00,28.0,21.0,30.03,East,98,1.0,5.0,74,0.00,,,0.00,,2013-01-27 12:02:00,
2013-01-27 06:11:00,28.0,21.0,30.03,East,98,1.0,5.0,74,0.00,,,0.00,,2013-01-27 12:11:00,
2013-01-27 06:21:00,28.0,21.0,30.03,ENE,71,1.0,3.0,75,0.00,,,0.00,,2013-01-27 12:21:00,
2013-01-27 06:32:00,28.0,21.0,30.03,NE,55,1.0,3.0,75,0.00,,,0.00,,2013-01-27 12:32:00,
2013-01-27 06:42:00,28.0,21.0,30.03,NE,55,1.0,3.0,75,0.00,,,0.00,,2013-01-27 12:42:00,
2013-01-27 06:52:00,28.0,21.0,30.03,NE,55,1.0,3.0,75,0.00,,,0.00,,2013-01-27 12:52:00,
2013-01-27 07:02:00,29.0,22.0,30.04,ENE,62,3.0,6.0,76,0.00,,,0.00,,2013-01-27 13:02:00,
2013-01-27 07:11:00,29.0,22.0,30.04,ENE,62,3.0,6.0,76,0.00,,,0.00,,2013-01-27 13:11:00,
2013-01-27 07:22:00,29.0,22.0,30.03,SSE,166,1.0,4.0,76,0.00,,,0.00,,2013-01-27 13:22:00,
2013-01-27 07:32:00,29.0,22.0,30.02,ENE,60,1.0,4.0,76,0.00,,,0.00,,2013-01-27 13:32:00,
2013-01-27 07:42:00,29.0,22.0,30.02,ENE,60,1.0,4.0,76,0.00,,,0.00,,2013-01-27 13:42:00,
2013-01-27 07:52:00,30.0,23.0,30.02,ENE,61,2.0,4.0,76,0.00,,,0.00,,2013-01-27 13:52:00,
2013-01-27 08:02:00,30.0,23.0,30.03,NE,46,1.0,100.0,75,0.00,,,0.00,,2013-01-27 14:02:00,
2013-01-27 08:11:00,30.0,23.0,30.03,NE,46,1.0,100.0,75,0.00,,,0.00,,2013-01-27 14:11:00,
2013-01-27 08:22:00,30.0,23.0,30.01,NE,45,1.0,100.0,75,0.00,,,0.00,,2013-01-27 14:22:00,
2013-01-27 08:32:00,31.0,24.0,30.01,ESE,105,2.0,5.0,74,0.00,,,0.00,,2013-01-27 14:32:00,
2013-01-27 08:42:00,31.0,24.0,30.01,ESE,105,2.0,5.0,74,0.00,,,0.00,,2013-01-27 14:42:00,
2013-01-27 08:52:00,31.0,24.0,30.01,ESE,110,2.0,4.0,75,0.00,,,0.00,,2013-01-27 14:52:00,
2013-01-27 09:02:00,31.0,24.0,30.03,East,84,1.0,5.0,76,0.00,,,0.00,,2013-01-27 15:02:00,
2013-01-27 09:12:00,31.0,24.0,30.03,East,84,1.0,5.0,76,0.00,,,0.00,,2013-01-27 15:12:00,
2013-01-27 09:22:00,31.0,25.0,30.03,East,89,1.0,3.0,78,0.00,,,0.00,,2013-01-27 15:22:00,
2013-01-27 09:32:00,31.0,25.0,30.04,East,81,2.0,3.0,79,0.00,,,0.00,,2013-01-27 15:32:00,
2013-01-27 09:42:00,31.0,25.0,30.04,East,81,2.0,3.0,79,0.00,,,0.00,,2013-01-27 15:42:00,
2013-01-27 09:52:00,31.0,25.0,30.05,ESE,107,2.0,7.0,78,0.00,,,0.00,,2013-01-27 15:52:00,
2013-01-27 10:02:00,32.0,26.0,30.04,East,91,1.0,4.0,78,0.00,,,0.00,,2013-01-27 16:02:00,
2013-01-27 10:12:00,32.0,26.0,30.04,East,91,1.0,4.0,78,0.00,,,0.00,,2013-01-27 16:12:00,
2013-01-27 10:21:00,32.0,26.0,30.04,ENE,68,2.0,7.0,79,0.00,,,0.00,,2013-01-27 16:21:00,
2013-01-27 10:32:00,32.0,27.0,30.04,ENE,61,0.0,4.0,80,0.00,,,0.00,,2013-01-27 16:32:00,
2013-01-27 10:42:00,32.0,27.0,30.04,ENE,61,0.0,4.0,80,0.00,,,0.00,,2013-01-27 16:42:00,
2013-01-27 10:52:00,32.0,27.0,30.03,ENE,74,2.0,5.0,82,0.00,,,0.00,,2013-01-27 16:52:00,
2013-01-27 11:02:00,32.0,27.0,30.01,ENE,57,3.0,5.0,83,0.00,,,0.00,,2013-01-27 17:02:00,
2013-01-27 11:12:00,32.0,27.0,30.01,ENE,57,3.0,5.0,83,0.00,,,0.00,,2013-01-27 17:12:00,
2013-01-27 11:21:00,32.0,27.0,30.00,East,85,2.0,7.0,83,0.00,,,0.00,,2013-01-27 17:21:00,
2013-01-27 11:32:00,32.0,28.0,29.98,ENE,75,2.0,5.0,84,0.00,,,0.00,,2013-01-27 17:32:00,
2013-01-27 11:42:00,32.0,28.0,29.98,ENE,75,2.0,5.0,84,0.00,,,0.00,,2013-01-27 17:42:00,
2013-01-27 11:52:00,32.0,28.0,29.96,East,92,3.0,6.0,86,0.00,,,0.00,,2013-01-27 17:52:00,
2013-01-27 12:02:00,32.0,29.0,29.96,East,90,2.0,6.0,87,0.00,,,0.00,,2013-01-27 18:02:00,
2013-01-27 12:11:00,32.0,29.0,29.96,East,90,2.0,6.0,87,0.00,,,0.00,,2013-01-27 18:11:00,
2013-01-27 12:22:00,32.0,29.0,29.95,ENE,72,1.0,4.0,88,0.00,,,0.00,,2013-01-27 18:22:00,
2013-01-27 12:32:00,33.0,30.0,29.94,East,89,1.0,4.0,89,0.00,,,0.00,,2013-01-27 18:32:00,
2013-01-27 12:42:00,33.0,30.0,29.94,East,89,1.0,4.0,89,0.00,,,0.00,,2013-01-27 18:42:00,
2013-01-27 12:52:00,33.0,30.0,29.93,East,89,1.0,4.0,90,0.00,,,0.00,,2013-01-27 18:52:00,
2013-01-27 13:02:00,33.0,30.0,29.91,East,85,2.0,5.0,90,0.00,,,0.00,,2013-01-27 19:02:00,
2013-01-27 13:11:00,33.0,30.0,29.91,East,85,2.0,5.0,90,0.00,,,0.00,,2013-01-27 19:11:00,
2013-01-27 13:22:00,33.0,31.0,29.89,East,81,2.0,4.0,91,0.00,,,0.00,,2013-01-27 19:22:00,
2013-01-27 13:32:00,33.0,31.0,29.87,SE,125,1.0,8.0,91,0.00,,,0.00,,2013-01-27 19:32:00,
2013-01-27 13:42:00,33.0,31.0,29.87,SE,125,1.0,8.0,91,0.00,,,0.00,,2013-01-27 19:42:00,
2013-01-27 13:52:00,34.0,32.0,29.86,East,101,2.0,5.0,92,0.00,,,0.00,,2013-01-27 19:52:00,
2013-01-27 14:02:00,34.0,32.0,29.85,East,86,1.0,8.0,92,0.00,,,0.00,,2013-01-27 20:02:00,
2013-01-27 14:11:00,34.0,32.0,29.85,East,86,1.0,8.0,92,0.00,,,0.00,,2013-01-27 20:11:00,
2013-01-27 14:22:00,34.0,32.0,29.84,East,86,3.0,11.0,92,0.00,,,0.00,,2013-01-27 20:22:00,
2013-01-27 14:33:00,34.0,32.0,29.84,East,89,2.0,8.0,93,0.00,,,0.00,,2013-01-27 20:33:00,
2013-01-27 14:42:00,34.0,32.0,29.84,East,89,2.0,8.0,93,0.00,,,0.00,,2013-01-27 20:42:00,
2013-01-27 14:52:00,34.0,32.0,29.83,ESE,109,3.0,8.0,94,0.00,,,0.00,,2013-01-27 20:52:00,
2013-01-27 15:02:00,34.0,32.0,29.83,ENE,68,1.0,7.0,94,0.00,,,0.00,,2013-01-27 21:02:00,
2013-01-27 15:12:00,34.0,32.0,29.83,ENE,68,1.0,7.0,94,0.00,,,0.00,,2013-01-27 21:12:00,
2013-01-27 15:22:00,34.0,32.0,29.84,NE,48,2.0,7.0,94,0.00,,,0.00,,2013-01-27 21:22:00,
2013-01-27 15:33:00,35.0,33.0,29.83,East,94,2.0,7.0,94,0.00,,,0.00,,2013-01-27 21:33:00,
2013-01-27 15:42:00,35.0,33.0,29.83,East,94,2.0,7.0,94,0.00,,,0.00,,2013-01-27 21:42:00,
2013-01-27 15:52:00,35.0,33.0,29.81,ESE,112,2.0,8.0,94,0.00,,,0.00,,2013-01-27 21:52:00,
2013-01-27 16:02:00,35.0,33.0,29.81,SE,124,2.0,11.0,94,0.00,,,0.00,,2013-01-27 22:02:00,
2013-01-27 16:11:00,35.0,33.0,29.81,SE,124,2.0,11.0,94,0.00,,,0.00,,2013-01-27 22:11:00,
2013-01-27 16:22:00,35.0,33.0,29.82,ESE,106,2.0,9.0,94,0.00,,,0.00,,2013-01-27 22:22:00,
2013-01-27 16:32:00,35.0,34.0,29.80,SE,125,2.0,11.0,95,0.00,,,0.00,,2013-01-27 22:32:00,
2013-01-27 16:42:00,35.0,34.0,29.80,SE,125,2.0,11.0,95,0.00,,,0.00,,2013-01-27 22:42:00,
2013-01-27 16:52:00,36.0,35.0,29.79,ESE,105,2.0,8.0,95,0.00,,,0.00,,2013-01-27 22:52:00,
2013-01-27 17:02:00,36.0,35.0,29.79,ESE,113,2.0,11.0,95,0.00,,,0.00,,2013-01-27 23:02:00,
2013-01-27 17:12:00,36.0,35.0,29.79,ESE,113,2.0,11.0,95,0.00,,,0.00,,2013-01-27 23:12:00,
2013-01-27 17:21:00,36.0,35.0,29.79,East,96,2.0,9.0,95,0.00,,,0.00,,2013-01-27 23:21:00,
2013-01-27 17:32:00,36.0,35.0,29.78,SE,132,2.0,8.0,96,0.00,,,0.00,,2013-01-27 23:32:00,
2013-01-27 17:41:00,36.0,35.0,29.78,SE,132,2.0,8.0,96,0.00,,,0.00,,2013-01-27 23:41:00,
2013-01-27 17:53:00,37.0,36.0,29.77,SE,134,2.0,7.0,96,0.00,,,0.00,,2013-01-27 23:53:00,
2013-01-27 18:02:00,37.0,36.0,29.77,ESE,112,2.0,8.0,96,0.00,,,0.00,,2013-01-28 00:02:00,
2013-01-27 18:11:00,37.0,36.0,29.77,ESE,112,2.0,8.0,96,0.00,,,0.00,,2013-01-28 00:11:00,
2013-01-27 18:21:00,38.0,37.0,29.77,ESE,102,2.0,6.0,96,0.00,,,0.00,,2013-01-28 00:21:00,
2013-01-27 18:32:00,38.0,37.0,29.76,ESE,115,2.0,6.0,96,0.00,,,0.00,,2013-01-28 00:32:00,
2013-01-27 18:42:00,38.0,37.0,29.76,ESE,115,2.0,6.0,96,0.00,,,0.00,,2013-01-28 00:42:00,
2013-01-27 18:52:00,38.0,37.0,29.75,ESE,114,2.0,9.0,96,0.00,,,0.00,,2013-01-28 00:52:00,
2013-01-27 19:01:00,39.0,38.0,29.75,SE,131,2.0,10.0,97,0.00,,,0.00,,2013-01-28 01:01:00,
2013-01-27 19:11:00,39.0,38.0,29.75,SE,131,2.0,10.0,97,0.00,,,0.00,,2013-01-28 01:11:00,
2013-01-27 19:22:00,39.0,38.0,29.75,ESE,114,2.0,8.0,97,0.00,,,0.00,,2013-01-28 01:22:00,
2013-01-27 19:32:00,39.0,38.0,29.75,East,87,2.0,8.0,97,0.00,,,0.00,,2013-01-28 01:32:00,
2013-01-27 19:42:00,39.0,38.0,29.75,East,87,2.0,8.0,97,0.00,,,0.00,,2013-01-28 01:42:00,
2013-01-27 19:52:00,39.0,38.0,29.75,ESE,112,2.0,7.0,97,0.00,,,0.00,,2013-01-28 01:52:00,
2013-01-27 20:02:00,39.0,38.0,29.75,East,97,2.0,10.0,97,0.00,,,0.00,,2013-01-28 02:02:00,
2013-01-27 20:11:00,39.0,38.0,29.75,East,97,2.0,10.0,97,0.00,,,0.00,,2013-01-28 02:11:00,
2013-01-27 20:22:00,39.0,38.0,29.75,SE,133,2.0,8.0,97,0.00,,,0.00,,2013-01-28 02:22:00,
2013-01-27 20:32:00,39.0,38.0,29.75,ESE,111,2.0,8.0,97,0.00,,,0.00,,2013-01-28 02:32:00,
2013-01-27 20:42:00,39.0,38.0,29.75,ESE,111,2.0,8.0,97,0.00,,,0.00,,2013-01-28 02:42:00,
2013-01-27 20:52:00,39.0,38.0,29.75,ESE,110,2.0,8.0,97,0.00,,,0.00,,2013-01-28 02:52:00,
2013-01-27 21:02:00,40.0,39.0,29.74,SE,127,2.0,8.0,97,0.00,,,0.00,,2013-01-28 03:02:00,
2013-01-27 21:12:00,40.0,39.0,29.74,SE,127,2.0,8.0,97,0.00,,,0.00,,2013-01-28 03:12:00,
2013-01-27 21:22:00,40.0,39.0,29.74,ESE,116,2.0,8.0,97,0.00,,,0.00,,2013-01-28 03:22:00,
2013-01-27 21:32:00,41.0,40.0,29.75,East,92,3.0,6.0,98,0.00,,,0.00,,2013-01-28 03:32:00,
2013-01-27 21:42:00,41.0,40.0,29.75,East,92,3.0,6.0,98,0.00,,,0.00,,2013-01-28 03:42:00,
2013-01-27 21:53:00,41.0,40.0,29.75,SE,124,4.0,10.0,98,0.00,,,0.00,,2013-01-28 03:53:00,
2013-01-27 22:02:00,42.0,41.0,29.75,ESE,123,3.0,8.0,98,0.00,,,0.00,,2013-01-28 04:02:00,
2013-01-27 22:11:00,42.0,41.0,29.75,ESE,123,3.0,8.0,98,0.00,,,0.00,,2013-01-28 04:11:00,
2013-01-27 22:22:00,42.0,41.0,29.74,SE,125,4.0,9.0,98,0.00,,,0.00,,2013-01-28 04:22:00,
2013-01-27 22:32:00,42.0,41.0,29.74,South,169,2.0,8.0,98,0.00,,,0.00,,2013-01-28 04:32:00,
2013-01-27 22:42:00,42.0,41.0,29.74,South,169,2.0,8.0,98,0.00,,,0.00,,2013-01-28 04:42:00,
2013-01-27 22:52:00,43.0,42.0,29.75,ESE,117,3.0,8.0,98,0.00,,,0.00,,2013-01-28 04:52:00,
2013-01-27 23:03:00,43.0,42.0,29.77,ESE,114,3.0,8.0,98,0.00,,,0.00,,2013-01-28 05:03:00,
2013-01-27 23:11:00,43.0,42.0,29.77,ESE,114,3.0,8.0,98,0.00,,,0.00,,2013-01-28 05:11:00,
2013-01-27 23:21:00,43.0,42.0,29.76,SE,125,3.0,7.0,98,0.00,,,0.00,,2013-01-28 05:21:00,
2013-01-27 23:32:00,43.0,42.0,29.75,SE,135,2.0,4.0,98,0.00,,,0.00,,2013-01-28 05:32:00,
2013-01-27 23:41:00,43.0,42.0,29.75,SE,135,2.0,4.0,98,0.00,,,0.00,,2013-01-28 05:41:00,
2013-01-27 23:52:00,43.0,42.0,29.75,SE,128,2.0,6.0,98,0.00,,,0.00,,2013-01-28 05:52:00,